Weather History for Bradford, PA

Change the Weather History Date:

Friday, April 19, 2013

  Actual Average Record
Temperature  
Mean Temperature 54 °F 45 °F  
Max Temperature 66 °F 57 °F 81 °F (1976)
Min Temperature 39 °F 34 °F 17 °F (2001)
Degree Days  
Heating Degree Days 12 15  
Month to date heating degree days 345  
Since 1 July heating degree days 6952  
Cooling Degree Days 0 0  
Month to date cooling degree days 0  
Year to date cooling degree days 0  
Growing Degree Days 4 (Base 50)    
Moisture  
Dew Point 46 °F    
Average Humidity 72    
Maximum Humidity 84    
Minimum Humidity 60    
Precipitation  
Precipitation 0.47 in 0.11 in 1.28 in (1998)
Month to date precipitation 2.28  
Year to date precipitation 11.29  
Sea Level Pressure  
Sea Level Pressure 29.62 in    
Wind  
Wind Speed 13 mph (SW)    
Max Wind Speed 24 mph    
Max Gust Speed 40 mph    
Visibility 8 miles    
Events Rain    
T = Trace of Precipitation, MM = Missing Value Source: NWS Daily Summary

Daily Weather History Graph

Daily Weather History Graph

Search for Another Location

Airport:

Trip Planner

Search our weather history database for the weather conditions in past years. The results will help you decide how hot, cold, wet, or windy it might be!

Date:

Astronomy

Apr. 19, 2013 Rise Set
Actual Time 6:27 AM EDT 8:00 PM EDT
Civil Twilight 5:58 AM EDT 8:29 PM EDT
Nautical Twilight 5:23 AM EDT 9:04 PM EDT
Astronomical Twilight 4:45 AM EDT 9:42 PM EDT
Moon 1:37 PM EDT (4/19) 2:47 AM EDT (4/19)
Length of Visible Light 14h 30m
Length of Day
13h 32m
First Quarter, 61% of the Moon is Illuminated
Apr 19
First Quarter
Apr 25
Full
May 2
Last Quarter
May 9
New
May 18
First Quarter

Hourly Weather History & Observations

Time (EDT) Temp. Windchill Dew Point Humidity Pressure Visibility Wind Dir Wind Speed Gust Speed Precip Events Conditions
12:53 AM 63.0 °F - 54.0 °F 72% 29.79 in 10.0 mi SSE 12.7 mph 20.7 mph N/A   Clear
1:53 AM 62.1 °F - 53.1 °F 72% 29.77 in 10.0 mi South 11.5 mph 18.4 mph N/A   Clear
2:53 AM 62.1 °F - 52.0 °F 70% 29.72 in 10.0 mi SSE 11.5 mph 21.9 mph N/A   Clear
3:53 AM 62.1 °F - 51.1 °F 67% 29.71 in 10.0 mi SSE 10.4 mph 17.3 mph N/A   Clear
4:53 AM 62.1 °F - 50.0 °F 65% 29.69 in 10.0 mi SSE 9.2 mph 20.7 mph N/A   Clear
5:53 AM 62.1 °F - 50.0 °F 65% 29.68 in 10.0 mi SSE 11.5 mph 23.0 mph N/A   Clear
6:53 AM 62.1 °F - 51.1 °F 67% 29.67 in 10.0 mi SSE 12.7 mph 21.9 mph N/A   Clear
7:53 AM 63.0 °F - 52.0 °F 67% 29.65 in 10.0 mi SSE 17.3 mph 26.5 mph N/A   Clear
8:53 AM 64.0 °F - 52.0 °F 65% 29.60 in 10.0 mi SSE 16.1 mph 35.7 mph N/A   Mostly Cloudy
9:53 AM 66.0 °F - 53.1 °F 63% 29.57 in 10.0 mi South 13.8 mph 26.5 mph N/A   Clear
10:53 AM 66.0 °F - 53.1 °F 63% 29.55 in 10.0 mi SSE 13.8 mph 25.3 mph 0.00 in Rain Light Rain
11:53 AM 64.0 °F - 54.0 °F 70% 29.55 in 5.0 mi South 13.8 mph 28.8 mph 0.05 in Rain Light Rain
12:53 PM 62.1 °F - 55.9 °F 80% 29.52 in 3.0 mi SSE 12.7 mph 21.9 mph 0.11 in Rain Rain
1:20 PM 62.1 °F - 55.9 °F 80% 29.53 in 7.0 mi SSE 12.7 mph 26.5 mph 0.01 in Rain Light Rain
1:53 PM 63.0 °F - 55.9 °F 78% 29.46 in 10.0 mi SSE 12.7 mph 24.2 mph 0.01 in   Overcast
2:16 PM 64.9 °F - 55.9 °F 73% 29.48 in 10.0 mi South 24.2 mph 40.3 mph N/A   Mostly Cloudy
2:53 PM 64.9 °F - 55.9 °F 73% 29.44 in 4.0 mi SSW 12.7 mph 29.9 mph 0.03 in Rain Rain
2:57 PM 64.0 °F - 57.0 °F 78% 29.50 in 1.5 mi West 15.0 mph 28.8 mph 0.10 in Rain Rain
3:05 PM 57.9 °F - 52.0 °F 81% 29.53 in 1.0 mi West 18.4 mph 31.1 mph 0.15 in Rain Heavy Rain
3:09 PM 55.9 °F - 51.1 °F 84% 29.53 in 2.0 mi West 18.4 mph 31.1 mph 0.16 in Rain Heavy Rain
3:19 PM 54.0 °F - 48.0 °F 80% 29.54 in 6.0 mi West 18.4 mph 31.1 mph 0.17 in Rain Rain
3:27 PM 54.0 °F - 48.0 °F 80% 29.54 in 5.0 mi West 16.1 mph 28.8 mph 0.18 in Rain Light Rain
3:35 PM 53.1 °F - 46.9 °F 80% 29.56 in 9.0 mi West 13.8 mph 24.2 mph 0.18 in Rain Light Rain
3:50 PM 51.8 °F - 46.4 °F 82% 29.58 in 2.5 mi West 9.2 mph 26.5 mph 0.22 in Rain Heavy Rain
3:53 PM 51.1 °F - 46.0 °F 83% 29.55 in 2.5 mi West 12.7 mph 25.3 mph 0.22 in Rain Rain
4:04 PM 50.0 °F - 45.0 °F 83% 29.59 in 10.0 mi West 19.6 mph 27.6 mph 0.01 in Rain Light Rain
4:24 PM 48.0 °F - 41.0 °F 77% 29.59 in 10.0 mi West 15.0 mph 24.2 mph 0.02 in Rain Light Rain
4:35 PM 46.9 °F - 39.0 °F 74% 29.62 in 4.0 mi West 8.1 mph 24.2 mph 0.04 in Rain Rain
4:53 PM 46.9 °F - 39.0 °F 74% 29.62 in 7.0 mi WSW 12.7 mph 23.0 mph 0.05 in Rain Light Rain
5:53 PM 46.0 °F 40.2 °F 37.9 °F 73% 29.64 in 10.0 mi WSW 12.7 mph 23.0 mph 0.00 in   Overcast
6:53 PM 46.0 °F 40.6 °F 37.9 °F 73% 29.65 in 10.0 mi WSW 11.5 mph 19.6 mph N/A   Overcast
7:00 PM 46.0 °F 41.0 °F 37.9 °F 73% 29.66 in 10.0 mi WSW 10.4 mph 20.7 mph N/A   Overcast
7:34 PM 45.0 °F 38.5 °F 35.1 °F 68% 29.68 in 10.0 mi West 13.8 mph 19.6 mph N/A   Overcast
7:53 PM 44.1 °F 38.1 °F 34.0 °F 68% 29.68 in 10.0 mi West 11.5 mph 18.4 mph N/A   Mostly Cloudy
8:53 PM 43.0 °F 38.8 °F 32.0 °F 65% 29.70 in 10.0 mi West 6.9 mph - N/A   Mostly Cloudy
9:53 PM 42.1 °F 34.9 °F 28.9 °F 60% 29.73 in 10.0 mi West 13.8 mph 24.2 mph N/A   Overcast
10:53 PM 41.0 °F 36.4 °F 28.0 °F 60% 29.74 in 10.0 mi Variable 6.9 mph 17.3 mph N/A   Overcast
11:53 PM 39.9 °F 35.1 °F 28.0 °F 63% 29.76 in 10.0 mi SW 6.9 mph - N/A   Overcast